Regional Weather Roundup
Issued by NWS

Home | Current Version | Previous Version | Text Only | Print | Product List | Glossary On
Versions: 1 2 3 4 5 6 7 8 9 10 11 12 13 14 15 16 17 18 19 20 21 22 23 24 25 26 27 28 29 30 31 32 33 34 35 36 37 38 39 40 41 42 43 44 45 46 47 48 49 50
000
ASCA42 TJSJ 040310
RWRPR
PUERTO RICO/U.S. VIRGIN ISLANDS HOURLY WEATHER ROUNDUP
NATIONAL WEATHER SERVICE SAN JUAN PR
1100 PM AST SUN MAY 03 2015

PRZ001-004-040400-
PUERTO RICO

CITY           SKY/WX    TMP DP  RH WIND       PRES   REMARKS
SAN JUAN LMM   CLEAR     81  73  78 E3        30.05R
PONCE          PTCLDY    79  72  78 NE6       30.00R
AGUADILLA      CLEAR     77  72  83 CALM      30.05R
$$

PRZ006-007-040400-
U.S. VIRGIN ISLANDS

CITY           SKY/WX    TMP DP  RH WIND       PRES   REMARKS
CHARLOTTE AMA  PTCLDY    81  73  78 E6        30.04R
CHRISTIANSTED  PTCLDY    79  73  83 NE6       30.04S
$$

HOURLY WEATHER ROUNDUP FOR THE NEWS MEDIA

CITY           SKY/WX    TMP DP  RH WIND       PRES   REMARKS
ORLANDO        CLEAR     68  55  63 E6        30.19R
NEW YORK       CLEAR     54  48  80 SE5       30.16R
NEWARK         PTCLDY    65  41  41 S5        30.13R
CHICAGO        MOCLDY    64  54  69 S13       29.92F
HARTFORD       CLEAR     47  44  90 S5        30.17F
BOSTON         PTCLDY    51  41  68 SW8       30.14S
DALLAS         CLEAR     75  57  53 SE14      29.97R
PHILADELPHIA   CLEAR     65  44  46 SW5       30.15R
LOS ANGELES    CLEAR     58  50  75 W17       29.86R
WASHINGTON DC  PTCLDY    60  46  59 S3        30.15R



USA.gov is the U.S. government's official web portal to all federal, state and local government web resources and services.